Precipitable_Water
1.23 1.19 1.20 1.18 1.20 1.17 1.15 1.13 1.13 1.10 1.03 0.97 0.88 0.83 0.78 0.71 0.65 0.59 0.59 0.81 0.76 0.59 0.60 0.63 0.58 0.50 0.48 0.47 0.40 0.45 0.42 0.43 0.39 0.32 0.30 0.29 0.27 0.28 0.27 0.30 0.28 0.28 0.27 0.28 0.32 0.27 0.20 0.31 0.28 0.22 0.23 0.23 0.23 0.22
1.17 1.15 1.15 1.14 1.16 1.16 1.13 1.12 1.12 1.12 1.06 0.98 0.91 0.86 0.83 0.76 0.69 0.65 0.54 0.76 0.83 0.66 0.61 0.74 0.70 0.65 0.58 0.57 0.50 0.47 0.45 0.46 0.44 0.37 0.35 0.34 0.30 0.31 0.28 0.23 0.32 0.26 0.31 0.29 0.31 0.32 0.37 0.30 0.27 0.29 0.28 0.27 0.27 0.25
1.03 1.16 1.15 1.12 1.13 1.14 1.12 1.11 1.10 1.09 1.05 1.02 0.93 0.90 0.87 0.79 0.72 0.66 0.60 0.69 0.72 0.62 0.60 0.60 0.57 0.71 0.72 0.66 0.63 0.46 0.46 0.48 0.44 0.48 0.40 0.37 0.31 0.34 0.26 0.26 0.29 0.32 0.36 0.31 0.31 0.35 0.41 0.40 0.37 0.36 0.34 0.32 0.32 0.31
0.91 1.00 1.12 1.10 1.11 1.11 1.10 1.08 1.07 1.06 1.04 1.04 0.98 0.91 0.90 0.81 0.74 0.65 0.58 0.68 0.68 0.63 0.45 0.44 0.64 0.61 0.68 0.68 0.67 0.66 0.62 0.57 0.50 0.51 0.42 0.39 0.33 0.40 0.32 0.34 0.30 0.33 0.34 0.31 0.30 0.35 0.42 0.44 0.42 0.40 0.40 0.39 0.38 0.37
0.86 0.93 1.09 1.09 1.10 1.10 1.09 1.06 1.04 1.02 1.01 1.00 0.99 0.89 0.89 0.84 0.77 0.65 0.59 0.64 0.70 0.57 0.42 0.43 0.55 0.60 0.61 0.59 0.60 0.61 0.59 0.58 0.54 0.49 0.46 0.40 0.43 0.40 0.38 0.36 0.31 0.37 0.34 0.32 0.32 0.40 0.42 0.47 0.50 0.46 0.44 0.43 0.42 0.39
0.82 0.85 0.93 1.06 1.06 1.08 1.06 1.05 1.02 0.99 0.97 0.96 0.95 0.89 0.86 0.86 0.75 0.60 0.46 0.53 0.65 0.69 0.49 0.33 0.50 0.50 0.50 0.51 0.50 0.50 0.52 0.52 0.52 0.48 0.49 0.51 0.50 0.44 0.34 0.28 0.37 0.40 0.43 0.43 0.41 0.47 0.47 0.50 0.56 0.54 0.47 0.47 0.45 0.42
0.75 0.80 0.87 0.99 1.04 1.04 1.03 1.01 0.99 0.97 0.94 0.91 0.89 0.87 0.82 0.78 0.66 0.49 0.43 0.52 0.61 0.67 0.46 0.32 0.32 0.46 0.48 0.46 0.45 0.45 0.48 0.47 0.48 0.47 0.46 0.45 0.46 0.49 0.39 0.29 0.40 0.47 0.48 0.48 0.50 0.51 0.48 0.53 0.54 0.65 0.57 0.54 0.53 0.50
0.70 0.80 0.90 1.00 1.00 1.01 1.00 0.98 0.95 0.93 0.90 0.86 0.82 0.81 0.80 0.73 0.66 0.56 0.63 0.65 0.62 0.58 0.49 0.33 0.32 0.39 0.47 0.38 0.36 0.44 0.39 0.43 0.44 0.44 0.45 0.44 0.49 0.49 0.37 0.43 0.48 0.52 0.53 0.53 0.53 0.57 0.58 0.58 0.61 0.64 0.67 0.61 0.55 0.51
0.64 0.74 0.84 0.88 0.95 0.96 0.95 0.93 0.91 0.88 0.84 0.81 0.77 0.77 0.72 0.63 0.52 0.51 0.67 0.66 0.66 0.55 0.36 0.34 0.30 0.28 0.44 0.39 0.39 0.39 0.39 0.31 0.40 0.34 0.37 0.41 0.37 0.31 0.37 0.40 0.42 0.46 0.45 0.45 0.47 0.48 0.55 0.55 0.54 0.61 0.65 0.63 0.56 0.53
0.58 0.66 0.74 0.81 0.89 0.94 0.94 0.91 0.87 0.82 0.79 0.76 0.69 0.56 0.48 0.52 0.62 0.62 0.60 0.48 0.46 0.47 0.45 0.34 0.39 0.34 0.39 0.38 0.36 0.35 0.36 0.29 0.25 0.31 0.40 0.32 0.29 0.37 0.39 0.40 0.38 0.37 0.37 0.37 0.33 0.32 0.41 0.47 0.51 0.52 0.54 0.60 0.61 0.53
0.58 0.63 0.67 0.77 0.87 0.94 0.93 0.88 0.82 0.78 0.72 0.61 0.52 0.48 0.55 0.67 0.54 0.46 0.36 0.37 0.39 0.34 0.37 0.38 0.38 0.34 0.42 0.34 0.33 0.37 0.32 0.32 0.23 0.29 0.28 0.27 0.25 0.30 0.36 0.36 0.38 0.39 0.38 0.37 0.37 0.37 0.38 0.43 0.47 0.49 0.50 0.54 0.61 0.62
0.57 0.58 0.63 0.75 0.83 0.92 0.89 0.82 0.77 0.69 0.61 0.57 0.59 0.62 0.61 0.51 0.44 0.37 0.34 0.33 0.33 0.30 0.38 0.36 0.37 0.42 0.41 0.44 0.35 0.36 0.30 0.31 0.22 0.37 0.30 0.23 0.29 0.35 0.37 0.38 0.40 0.41 0.40 0.41 0.41 0.39 0.39 0.39 0.40 0.41 0.47 0.49 0.53 0.62
0.58 0.57 0.60 0.74 0.85 0.87 0.83 0.79 0.74 0.70 0.65 0.61 0.53 0.45 0.43 0.41 0.33 0.31 0.28 0.30 0.30 0.33 0.39 0.39 0.35 0.40 0.41 0.42 0.36 0.34 0.27 0.26 0.37 0.27 0.23 0.25 0.30 0.35 0.38 0.42 0.42 0.43 0.42 0.42 0.40 0.39 0.38 0.38 0.40 0.41 0.43 0.49 0.53 0.55
0.57 0.58 0.60 0.70 0.82 0.82 0.80 0.74 0.70 0.63 0.56 0.46 0.40 0.32 0.35 0.32 0.35 0.34 0.33 0.33 0.36 0.36 0.40 0.41 0.36 0.34 0.38 0.33 0.35 0.26 0.30 0.33 0.24 0.20 0.18 0.24 0.31 0.36 0.40 0.45 0.46 0.45 0.46 0.47 0.47 0.46 0.40 0.39 0.40 0.44 0.45 0.49 0.52 0.55
0.54 0.54 0.57 0.66 0.80 0.77 0.74 0.72 0.67 0.60 0.50 0.40 0.39 0.32 0.34 0.37 0.36 0.38 0.39 0.40 0.40 0.42 0.40 0.37 0.37 0.37 0.33 0.30 0.31 0.29 0.24 0.21 0.22 0.17 0.22 0.30 0.35 0.39 0.41 0.44 0.47 0.46 0.47 0.49 0.50 0.50 0.47 0.41 0.42 0.44 0.47 0.49 0.54 0.57
0.52 0.54 0.59 0.77 0.75 0.73 0.71 0.67 0.60 0.55 0.46 0.39 0.35 0.31 0.33 0.32 0.30 0.35 0.39 0.39 0.43 0.41 0.42 0.39 0.32 0.29 0.27 0.28 0.26 0.23 0.21 0.17 0.18 0.24 0.29 0.34 0.38 0.40 0.39 0.43 0.45 0.47 0.47 0.49 0.53 0.58 0.56 0.51 0.45 0.46 0.49 0.50 0.53 0.55
0.60 0.58 0.74 0.76 0.73 0.71 0.67 0.61 0.55 0.46 0.40 0.36 0.32 0.34 0.32 0.32 0.31 0.34 0.39 0.41 0.46 0.38 0.31 0.32 0.25 0.24 0.31 0.24 0.23 0.25 0.20 0.22 0.26 0.30 0.35 0.37 0.34 0.33 0.32 0.32 0.33 0.37 0.42 0.48 0.54 0.61 0.64 0.66 0.59 0.50 0.48 0.51 0.53 0.54
0.57 0.72 0.70 0.67 0.65 0.62 0.59 0.55 0.46 0.39 0.34 0.32 0.29 0.31 0.32 0.36 0.36 0.38 0.43 0.44 0.41 0.37 0.33 0.28 0.31 0.25 0.21 0.18 0.18 0.23 0.27 0.30 0.33 0.34 0.35 0.33 0.31 0.30 0.30 0.30 0.30 0.34 0.36 0.43 0.53 0.59 0.64 0.65 0.66 0.64 0.57 0.53 0.54 0.54
0.60 0.59 0.62 0.64 0.63 0.56 0.45 0.44 0.39 0.30 0.29 0.32 0.33 0.34 0.33 0.34 0.40 0.43 0.45 0.45 0.43 0.42 0.36 0.31 0.24 0.20 0.19 0.23 0.23 0.26 0.28 0.30 0.29 0.34 0.36 0.36 0.31 0.27 0.25 0.25 0.25 0.26 0.33 0.39 0.44 0.53 0.61 0.65 0.67 0.69 0.67 0.59 0.53 0.53
0.61 0.61 0.63 0.63 0.59 0.48 0.39 0.38 0.39 0.30 0.28 0.30 0.34 0.32 0.31 0.32 0.38 0.41 0.41 0.40 0.37 0.34 0.29 0.24 0.21 0.21 0.21 0.23 0.26 0.29 0.32 0.33 0.31 0.28 0.29 0.28 0.23 0.21 0.22 0.24 0.24 0.26 0.27 0.36 0.42 0.47 0.55 0.62 0.67 0.70 0.71 0.70 0.57 0.52
0.58 0.58 0.60 0.58 0.50 0.43 0.36 0.34 0.32 0.32 0.32 0.31 0.34 0.31 0.30 0.37 0.37 0.36 0.35 0.39 0.34 0.30 0.26 0.26 0.25 0.26 0.26 0.26 0.27 0.28 0.28 0.27 0.25 0.24 0.19 0.17 0.18 0.25 0.27 0.28 0.30 0.29 0.28 0.29 0.35 0.43 0.48 0.55 0.63 0.68 0.69 0.70 0.71 0.63
0.53 0.56 0.52 0.53 0.44 0.40 0.35 0.37 0.32 0.33 0.32 0.32 0.31 0.32 0.30 0.30 0.31 0.32 0.37 0.33 0.31 0.32 0.31 0.29 0.29 0.29 0.26 0.24 0.24 0.27 0.26 0.28 0.26 0.25 0.23 0.21 0.22 0.25 0.26 0.29 0.30 0.29 0.31 0.34 0.35 0.37 0.44 0.49 0.54 0.61 0.67 0.70 0.72 0.72
0.55 0.53 0.47 0.44 0.36 0.34 0.31 0.38 0.30 0.33 0.28 0.29 0.31 0.29 0.30 0.29 0.27 0.33 0.28 0.28 0.29 0.33 0.32 0.31 0.30 0.29 0.27 0.26 0.25 0.23 0.23 0.22 0.21 0.20 0.18 0.19 0.25 0.29 0.30 0.31 0.34 0.33 0.32 0.33 0.37 0.38 0.38 0.42 0.47 0.50 0.57 0.65 0.68 0.69
0.55 0.43 0.36 0.33 0.32 0.28 0.33 0.31 0.34 0.33 0.32 0.29 0.29 0.28 0.29 0.30 0.32 0.25 0.22 0.24 0.27 0.28 0.26 0.25 0.24 0.22 0.22 0.21 0.19 0.20 0.20 0.21 0.21 0.22 0.21 0.22 0.23 0.29 0.33 0.34 0.35 0.34 0.32 0.30 0.30 0.33 0.34 0.35 0.40 0.45 0.48 0.52 0.61 0.62
0.34 0.31 0.32 0.27 0.31 0.28 0.26 0.27 0.29 0.30 0.27 0.28 0.27 0.26 0.28 0.32 0.26 0.24 0.22 0.25 0.26 0.26 0.27 0.27 0.25 0.23 0.21 0.21 0.22 0.22 0.23 0.24 0.22 0.20 0.22 0.26 0.28 0.33 0.33 0.30 0.28 0.27 0.28 0.24 0.23 0.25 0.27 0.29 0.30 0.35 0.42 0.44 0.46 0.53
0.26 0.29 0.28 0.27 0.28 0.27 0.27 0.26 0.27 0.27 0.28 0.28 0.28 0.29 0.29 0.25 0.22 0.20 0.21 0.24 0.25 0.24 0.25 0.25 0.24 0.23 0.22 0.22 0.20 0.21 0.22 0.26 0.25 0.22 0.25 0.31 0.33 0.30 0.26 0.23 0.20 0.15 0.15 0.16 0.16 0.15 0.18 0.22 0.23 0.23 0.25 0.32 0.42 0.43
0.25 0.25 0.28 0.30 0.29 0.29 0.28 0.30 0.31 0.29 0.27 0.25 0.26 0.26 0.26 0.22 0.21 0.23 0.26 0.27 0.25 0.24 0.24 0.23 0.23 0.21 0.18 0.19 0.21 0.23 0.26 0.28 0.26 0.26 0.32 0.34 0.33 0.32 0.26 0.18 0.10 0.10 0.12 0.13 0.13 0.12 0.12 0.13 0.13 0.15 0.18 0.22 0.26 0.36
0.28 0.28 0.24 0.26 0.27 0.29 0.26 0.26 0.27 0.27 0.27 0.28 0.26 0.23 0.23 0.22 0.22 0.25 0.25 0.27 0.26 0.25 0.24 0.23 0.22 0.21 0.20 0.20 0.21 0.22 0.24 0.27 0.29 0.28 0.27 0.25 0.24 0.22 0.19 0.14 0.13 0.13 0.14 0.15 0.15 0.14 0.14 0.14 0.12 0.12 0.13 0.15 0.19 0.26
0.25 0.27 0.26 0.24 0.26 0.27 0.27 0.27 0.27 0.29 0.30 0.27 0.24 0.23 0.24 0.27 0.28 0.26 0.24 0.24 0.24 0.23 0.21 0.21 0.22 0.23 0.23 0.24 0.26 0.26 0.26 0.24 0.22 0.21 0.20 0.18 0.17 0.15 0.14 0.12 0.12 0.13 0.14 0.14 0.14 0.15 0.15 0.15 0.14 0.14 0.14 0.15 0.17 0.22
0.21 0.25 0.22 0.22 0.21 0.22 0.25 0.27 0.25 0.28 0.29 0.29 0.29 0.28 0.27 0.27 0.27 0.27 0.25 0.25 0.24 0.23 0.22 0.21 0.22 0.22 0.20 0.21 0.22 0.24 0.24 0.23 0.21 0.18 0.16 0.14 0.12 0.11 0.12 0.12 0.13 0.14 0.14 0.14 0.14 0.14 0.15 0.15 0.15 0.15 0.14 0.13 0.14 0.14
0.23 0.22 0.20 0.20 0.19 0.22 0.24 0.27 0.28 0.28 0.27 0.27 0.27 0.25 0.25 0.26 0.26 0.26 0.25 0.25 0.25 0.25 0.23 0.22 0.22 0.22 0.21 0.21 0.21 0.20 0.19 0.21 0.20 0.18 0.16 0.14 0.14 0.14 0.14 0.14 0.15 0.15 0.15 0.15 0.15 0.14 0.14 0.14 0.14 0.13 0.12 0.12 0.12 0.12
0.20 0.19 0.18 0.17 0.18 0.23 0.25 0.25 0.25 0.24 0.24 0.24 0.24 0.25 0.25 0.24 0.22 0.23 0.25 0.25 0.23 0.22 0.22 0.23 0.22 0.22 0.23 0.23 0.23 0.23 0.23 0.21 0.19 0.19 0.19 0.18 0.17 0.16 0.16 0.16 0.16 0.16 0.16 0.16 0.15 0.15 0.15 0.14 0.13 0.13 0.12 0.12 0.12 0.12
0.20 0.20 0.20 0.20 0.20 0.20 0.22 0.24 0.24 0.26 0.27 0.25 0.25 0.23 0.23 0.21 0.18 0.21 0.24 0.24 0.22 0.22 0.22 0.22 0.23 0.24 0.24 0.24 0.24 0.24 0.24 0.23 0.23 0.21 0.20 0.19 0.18 0.17 0.17 0.16 0.17 0.18 0.17 0.17 0.16 0.16 0.15 0.14 0.13 0.13 0.13 0.13 0.13 0.13
Wind_Speed
58 59 60 60 59 58 56 52 51 48 45 42 39 37 34 32 30 29 29 29 28 26 25 24 24 21 21 22 22 21 19 20 19 19 19 20 19 21 19 20 20 20 20 21 19 20 23 16 16 17 15 14 14 13
61 62 62 57 58 59 57 55 53 51 48 44 42 39 36 34 32 31 30 30 30 28 25 27 26 24 24 23 23 24 23 20 21 19 21 20 21 19 19 21 22 24 25 24 25 23 20 17 16 17 18 19 18 17
55 60 62 60 57 56 55 55 53 52 50 47 44 41 38 36 34 33 31 30 29 28 28 28 26 27 28 27 26 23 24 24 23 22 21 21 22 20 21 23 22 24 23 25 24 27 29 29 26 24 23 22 20 20
56 60 64 63 61 58 55 53 52 53 51 51 47 45 41 37 35 34 33 32 31 27 27 27 26 30 28 28 30 29 26 24 23 24 24 24 24 23 23 23 22 22 22 25 28 29 28 28 27 25 24 23 23 22
51 55 63 62 61 59 56 54 51 48 49 49 49 46 44 40 37 34 34 33 33 29 24 25 26 27 27 28 30 28 29 28 27 26 25 26 27 26 26 26 26 23 24 25 26 25 25 27 25 28 28 28 27 25
47 51 54 65 61 59 56 55 52 48 47 45 47 46 43 40 37 35 33 35 34 32 27 26 26 24 24 24 25 28 28 27 28 28 29 30 29 27 28 29 28 28 30 29 31 30 32 33 32 32 32 30 28 27
41 43 47 56 61 59 56 54 51 49 47 44 42 43 42 39 37 35 33 32 34 32 28 26 26 26 24 23 24 24 25 26 26 27 29 29 28 28 31 34 26 27 27 28 30 31 36 35 35 37 37 36 35 34
38 38 36 49 56 54 53 53 51 48 47 43 40 39 39 38 36 34 33 30 31 30 27 26 25 23 23 23 22 23 23 24 25 26 26 27 27 29 32 27 26 30 32 34 36 37 41 41 41 39 40 40 39 38
37 36 38 39 46 52 50 51 48 46 43 43 39 35 35 36 34 33 32 29 30 29 27 27 25 23 22 22 22 22 22 22 24 25 26 26 28 28 27 26 28 30 30 31 33 35 36 38 39 39 37 40 41 41
36 38 39 41 39 54 50 49 47 46 42 40 37 34 33 34 31 30 29 28 28 30 30 27 24 23 21 21 21 20 21 21 22 23 23 27 30 30 29 31 32 33 35 35 36 36 35 37 37 38 38 38 42 41
36 39 39 39 38 55 54 51 48 46 42 36 32 31 31 33 29 28 27 27 28 28 29 27 27 23 22 20 20 21 20 20 21 21 21 23 24 22 22 23 24 25 26 27 28 30 32 35 37 40 41 40 40 44
36 38 40 39 38 58 53 53 51 44 38 34 30 28 28 27 26 27 27 26 26 28 25 24 24 23 22 20 19 20 20 19 20 19 21 22 21 19 19 21 22 22 23 24 25 27 29 31 33 36 38 39 40 41
35 36 39 41 40 61 56 54 48 42 38 30 25 26 26 26 26 28 28 26 26 22 22 21 20 22 20 20 18 19 19 21 19 20 20 20 18 19 20 21 22 22 23 24 26 28 29 31 31 33 35 36 38 39
34 36 39 43 46 63 59 54 51 43 34 26 25 25 27 24 29 26 25 24 24 23 23 21 19 19 18 19 18 18 19 18 18 18 18 17 18 19 20 21 21 23 23 25 27 28 29 29 30 30 31 33 35 37
33 36 40 46 60 64 58 55 50 40 30 25 24 24 27 25 23 24 23 21 21 23 23 19 17 16 16 17 17 16 15 17 16 14 15 15 16 18 19 21 22 22 24 26 27 27 27 27 27 27 27 28 30 32
27 34 44 55 66 60 59 53 44 36 29 24 24 21 23 24 22 21 22 21 22 23 21 17 16 16 16 16 15 16 15 16 15 15 15 15 17 19 20 21 22 23 23 24 25 25 24 25 24 24 24 23 24 26
17 27 55 64 64 60 56 48 39 31 28 24 23 24 23 23 22 21 21 22 25 24 19 17 16 16 14 15 16 16 16 15 14 13 14 16 18 20 21 22 24 24 24 23 23 23 23 22 21 21 21 22 22 22
11 46 62 63 60 53 45 39 32 28 27 26 23 25 23 22 24 23 21 23 23 21 18 17 15 15 16 15 14 14 14 14 15 16 17 18 19 21 22 24 24 25 24 23 22 22 21 21 21 20 20 20 21 21
28 48 57 58 52 42 34 33 29 24 24 26 23 23 23 21 22 23 23 23 21 21 18 16 15 16 16 15 15 15 15 15 16 18 19 21 22 24 25 25 24 24 24 23 22 21 20 20 19 19 19 18 19 20
41 48 53 50 43 33 28 28 29 23 23 24 26 24 23 21 22 22 23 23 21 21 19 18 17 15 14 15 15 14 16 17 17 19 21 23 23 24 24 23 23 23 23 23 23 22 20 19 18 18 18 19 19 20
44 50 47 44 35 26 23 26 26 25 21 22 26 24 23 22 23 23 23 24 22 22 20 19 17 18 17 16 16 16 18 18 19 20 21 22 22 22 22 22 22 21 20 21 22 22 21 20 18 17 17 17 18 18
44 46 42 38 32 24 22 23 25 24 23 22 25 24 23 23 23 23 23 24 24 24 22 20 20 21 21 20 20 20 20 21 22 22 22 21 20 21 21 20 20 20 19 18 18 20 21 21 19 18 17 15 15 15
41 40 35 31 29 25 23 23 22 22 21 24 24 22 22 22 23 23 23 24 24 23 23 24 23 23 23 22 22 23 24 24 23 23 22 21 20 20 19 19 18 17 17 17 16 16 17 18 19 18 17 16 15 14
36 31 27 26 26 26 25 22 22 22 21 21 23 23 23 21 22 23 22 22 20 21 23 24 24 23 22 22 23 23 24 24 23 22 21 20 19 18 17 16 15 15 15 15 15 15 15 15 17 16 16 16 16 15
25 21 22 23 25 25 24 24 23 21 20 24 23 22 21 22 22 22 22 20 20 22 23 22 22 22 22 22 22 23 23 21 21 21 20 20 19 17 16 15 15 15 14 14 14 14 15 15 15 16 17 16 16 16
22 19 21 23 23 24 24 23 23 22 21 22 24 22 22 21 21 22 21 21 22 21 21 23 23 22 22 22 21 22 22 22 21 20 20 19 18 17 16 15 15 15 13 13 14 15 15 15 15 16 17 18 18 17
20 19 22 21 23 23 23 20 20 19 21 21 23 24 23 23 23 22 21 21 19 18 19 20 20 20 20 20 21 20 19 19 18 18 17 17 18 17 16 15 14 15 15 14 15 15 15 16 16 17 18 18 19 19
20 19 21 23 20 21 21 22 22 22 19 20 21 24 24 24 22 20 19 19 20 19 19 19 19 19 18 18 18 17 18 17 17 17 16 16 17 17 17 17 17 17 16 17 18 18 18 18 18 19 20 20 20 20
19 19 19 18 19 19 21 21 22 21 21 22 21 21 22 24 22 21 20 20 20 19 19 19 19 18 18 18 18 18 17 17 16 16 17 17 17 17 18 18 18 18 19 20 20 19 18 19 19 20 20 21 22 22
21 22 20 20 20 21 20 21 20 20 21 22 21 20 20 21 22 24 23 23 22 21 21 20 20 20 20 20 19 20 20 20 20 20 19 19 19 19 20 20 21 21 21 20 19 20 20 21 21 21 21 21 22 22
20 22 22 23 23 22 22 22 21 21 22 23 22 22 21 21 22 24 25 24 24 22 22 22 23 23 22 22 23 24 24 25 26 26 25 24 24 24 23 23 23 22 21 21 21 21 22 22 22 23 23 23 24 24
19 20 20 21 22 22 23 22 22 21 22 23 23 23 23 23 24 24 25 26 26 26 26 25 24 25 27 28 28 29 28 28 28 29 29 28 27 27 27 27 26 26 25 24 24 24 24 24 24 25 25 26 26 26
19 20 19 19 19 21 22 22 22 22 23 24 25 25 26 26 27 26 26 28 28 29 29 29 29 29 30 30 30 31 31 32 32 33 33 32 32 31 30 30 30 30 29 28 28 28 28 27 28 28 28 29 29 29
Wind_Direction
234 236 238 240 238 238 241 240 239 240 241 242 242 242 242 242 243 243 244 242 244 248 251 249 247 248 249 246 245 246 249 251 251 252 254 259 262 261 262 257 251 247 243 249 251 251 262 253 247 243 252 263 264 266
236 239 236 238 236 236 238 238 238 237 238 239 238 239 239 239 241 243 244 242 243 246 251 249 249 249 248 246 245 246 248 250 249 253 256 260 263 265 263 264 259 256 249 249 243 247 251 245 244 253 255 260 266 266
239 237 234 234 235 234 235 236 236 236 236 235 235 235 235 237 240 241 242 240 242 246 251 250 249 249 247 247 246 247 250 249 251 253 255 258 260 262 262 264 262 259 254 252 252 253 252 254 256 258 259 259 266 265
243 238 233 233 233 231 233 234 234 234 234 232 233 232 233 237 239 239 239 239 240 245 249 253 251 249 249 248 247 248 248 249 251 253 255 256 260 261 265 268 264 263 255 254 257 258 261 258 254 253 256 259 263 268
244 237 231 230 229 230 229 229 229 231 230 230 229 230 231 234 235 238 238 238 236 238 249 253 253 252 251 249 247 248 245 247 251 254 255 257 258 261 264 268 267 263 260 256 259 256 255 258 258 255 257 259 263 263
242 240 238 227 227 225 225 225 226 228 227 228 227 226 228 229 231 236 240 238 236 237 247 253 254 252 251 248 246 245 246 248 249 252 254 258 259 260 264 268 269 263 261 260 262 263 260 261 262 260 259 259 257 256
241 239 237 226 222 223 222 221 222 223 223 223 223 222 224 227 230 233 237 239 230 233 242 250 253 249 248 248 248 248 247 248 250 253 256 259 259 258 265 267 268 269 267 264 265 266 264 259 261 261 255 255 256 255
237 235 231 218 216 218 221 220 218 217 214 215 217 218 220 223 227 231 232 230 225 230 238 245 249 249 245 245 245 247 247 248 251 255 259 260 263 262 266 270 270 269 268 268 268 266 265 263 262 263 256 255 254 254
231 228 220 218 216 215 213 210 209 207 206 207 208 209 216 223 227 227 224 225 225 231 237 242 242 245 241 243 243 246 247 251 256 256 259 260 261 262 267 272 274 275 272 272 272 268 266 262 262 261 260 253 251 252
230 224 223 221 221 207 204 202 201 199 198 199 206 214 221 220 215 212 222 225 228 234 237 240 237 239 237 238 242 244 248 249 257 260 261 261 266 269 271 274 275 278 279 276 274 272 268 264 261 260 259 257 251 250
229 224 222 220 219 203 203 200 195 192 193 206 213 215 212 202 212 219 222 223 228 233 235 235 231 233 235 236 238 242 247 250 258 261 259 268 272 272 276 277 278 278 280 278 275 273 270 267 264 263 260 258 254 247
227 224 222 217 217 198 195 192 191 197 204 207 207 199 201 212 216 217 220 225 228 230 230 226 226 228 231 233 238 241 247 252 259 259 265 270 268 269 277 279 281 280 283 283 281 279 278 273 269 264 261 259 255 252
225 223 218 212 210 194 192 190 191 190 186 192 203 208 211 213 214 218 217 223 226 226 224 220 219 221 227 235 241 245 248 255 258 261 266 265 266 269 273 277 280 281 283 284 284 283 281 278 275 268 263 260 257 253
224 220 213 209 199 190 189 189 187 189 197 208 209 207 214 216 221 220 223 224 224 220 212 210 214 222 228 231 241 245 249 253 258 262 264 265 261 268 274 277 280 284 286 288 290 289 285 281 278 273 266 262 257 253
223 222 218 209 191 188 188 186 189 195 204 210 210 217 216 218 219 217 218 215 216 206 201 204 214 223 223 231 237 242 245 254 255 260 264 261 265 273 278 283 285 288 290 289 290 290 290 285 280 275 271 266 260 256
234 228 210 192 184 185 184 185 191 199 207 210 215 216 213 208 210 210 209 206 201 196 197 210 215 220 226 230 234 238 244 250 260 259 260 266 272 277 282 285 287 290 294 296 292 289 289 287 282 276 271 267 264 259
223 205 181 177 178 179 181 187 195 203 207 211 217 212 208 206 204 202 200 197 193 193 205 212 214 222 225 233 239 241 250 256 255 258 266 272 279 284 285 287 287 288 289 294 296 291 289 286 284 281 273 269 267 263
167 163 165 167 170 173 181 191 197 203 208 211 209 206 205 205 202 203 202 196 196 201 209 217 218 224 229 234 244 246 251 257 262 267 273 278 283 285 287 288 289 288 284 286 290 290 291 290 283 281 277 272 267 264
162 165 169 172 175 179 186 192 198 201 205 203 203 201 201 202 203 200 199 199 205 208 212 221 228 232 236 241 247 252 256 261 267 273 276 281 285 287 288 288 288 288 283 280 282 286 286 289 285 285 275 271 269 269
169 168 170 172 177 184 191 195 197 197 199 200 198 197 197 200 198 200 199 203 207 211 221 227 230 231 236 244 247 257 261 267 275 279 282 284 285 288 288 287 288 288 284 277 274 277 281 283 286 287 281 273 272 271
171 172 172 176 178 182 187 190 193 197 194 197 196 199 202 203 204 206 207 208 215 222 226 227 231 236 242 252 257 263 268 273 276 280 284 285 286 285 288 289 289 289 287 281 272 272 276 278 278 286 287 283 276 273
170 173 176 180 184 189 191 193 193 195 201 200 199 202 203 207 209 211 212 220 228 228 227 231 237 240 247 252 259 265 272 276 278 280 281 283 284 286 287 288 292 291 288 285 281 273 273 273 271 276 281 284 285 279
169 174 179 184 189 193 192 192 195 200 201 203 202 204 208 210 213 211 222 228 230 229 230 235 240 245 250 255 259 266 271 272 275 275 277 278 281 283 284 287 290 291 291 286 285 284 279 273 270 272 273 277 279 279
169 180 185 188 193 195 195 199 199 199 201 202 203 206 208 210 209 219 227 229 228 229 233 237 240 245 251 255 259 265 268 270 270 270 272 275 278 279 279 282 288 293 293 292 287 284 287 281 274 271 271 274 273 276
172 180 186 191 194 194 197 199 203 206 208 207 206 209 211 212 218 224 228 230 228 233 234 235 238 243 251 256 261 264 266 266 267 268 267 267 271 272 273 277 285 290 293 293 294 290 286 289 284 275 272 275 276 274
182 191 192 194 194 196 198 200 205 206 206 210 212 211 212 216 222 229 229 232 234 236 236 237 241 245 250 255 259 263 265 262 264 264 265 263 260 261 265 271 281 287 291 293 295 295 291 288 290 287 279 275 275 276
191 196 197 198 198 198 200 205 207 212 215 215 213 214 216 223 230 233 234 232 234 236 235 234 234 240 251 258 260 261 260 256 257 261 261 258 256 255 259 265 272 280 287 293 295 296 295 293 289 287 285 282 277 273
196 196 196 198 201 206 209 212 213 212 213 213 209 216 217 222 229 229 230 229 228 230 228 232 238 246 251 256 257 255 254 254 256 258 259 257 255 254 257 262 271 277 283 289 292 293 293 292 292 289 285 284 280 278
202 200 198 201 205 210 211 210 211 213 213 213 218 222 226 228 229 229 227 223 221 226 231 236 242 246 252 257 257 255 254 252 248 249 252 254 257 257 259 263 268 275 283 287 290 290 291 293 295 294 291 286 281 278
216 211 212 213 213 217 218 215 220 222 222 221 225 228 230 230 230 227 227 227 230 232 235 241 244 247 251 253 255 255 253 251 250 251 253 254 256 260 263 266 271 277 280 282 285 288 291 293 295 295 294 291 287 282
217 220 223 223 225 226 225 225 226 225 225 225 228 227 231 232 233 230 228 231 233 237 242 248 251 250 252 254 255 256 257 254 252 253 255 257 260 264 265 267 271 275 276 278 282 285 289 291 292 293 293 292 290 286
222 222 224 227 230 229 227 226 225 227 228 228 231 232 235 235 236 237 236 235 240 244 249 252 253 254 254 257 259 258 258 257 254 254 254 257 260 262 264 266 269 270 273 276 279 283 284 286 289 291 292 292 290 287
226 225 227 228 229 228 227 224 228 231 234 237 239 238 238 239 242 244 244 243 247 250 252 254 255 256 258 259 259 259 258 258 257 255 255 256 258 262 266 267 267 267 268 272 275 278 281 284 287 289 290 291 290 287